Terminal Aerodrome Forecast
Issued by NWS Duluth, MN

Home | Current Version | Previous Version | Text Only | Print | Product List | Glossary On
Versions: 1 2 3 4 5 6 7 8 9 10 11 12 13 14 15 16 17 18 19
000
FTUS43 KDLH 220500
TAFDLH
TAF
KDLH 220533Z 2206/2306 33010G25KT P6SM VCSH OVC013
      TEMPO 2206/2209 2SM -SN
     FM221500 32015G27KT P6SM BKN035 OVC080
     FM230400 32011G17KT P6SM BKN040=

USA.gov is the U.S. government's official web portal to all federal, state and local government web resources and services.